This is the latest recevied weather packets stored in our database for station/object K1TTC. If no packets are shown the sender has not sent any weather packets the latest 10 day(s).
| Time | Temp. | Humidity | Pressure | Rain* | Wind** | Luminosity | Snow |
|---|---|---|---|---|---|---|---|
| 1777489507 | 13.89° C | 56% | 1016.7 hPa | 0 mm | - | 577 W/m² | - |
| 1777488909 | 14.44° C | 55% | 1016.9 hPa | 0 mm | - | 346 W/m² | - |
| 1777488306 | 14.44° C | 54% | 1016.7 hPa | 0 mm | - | 425 W/m² | - |
| 1777487706 | 15° C | 54% | 1016.9 hPa | 0 mm | - | 469 W/m² | - |
| 1777487107 | 15° C | 55% | 1016.8 hPa | 0 mm | - | 895 W/m² | - |
| 1777486507 | 14.44° C | 56% | 1016.8 hPa | 0 mm | - | 487 W/m² | - |
| 1777485941 | 13.89° C | 56% | 1016.9 hPa | 0 mm | - | 802 W/m² | - |
| 1777485303 | 13.89° C | 57% | 1017 hPa | 0 mm | - | 554 W/m² | - |
| 1777484705 | 13.89° C | 57% | 1017 hPa | 0 mm | - | 640 W/m² | - |
| 1777484118 | 13.89° C | 57% | 1017.2 hPa | 0 mm | - | 466 W/m² | - |
| 1777483504 | 13.33° C | 58% | 1017.2 hPa | 0 mm | - | 436 W/m² | - |
| 1777482905 | 13.33° C | 60% | 1017.2 hPa | 0 mm | - | 784 W/m² | - |
| 1777482307 | 12.78° C | 60% | 1017.4 hPa | 0 mm | - | 468 W/m² | - |
| 1777481703 | 12.22° C | 60% | 1017.5 hPa | 0 mm | - | 397 W/m² | - |
| 1777481101 | 12.22° C | 61% | 1017.5 hPa | 0 mm | - | 373 W/m² | - |
| 1777480499 | 11.67° C | 61% | 1017.4 hPa | 0 mm | - | 418 W/m² | - |
| 1777479899 | 11.67° C | 62% | 1017.6 hPa | 0 mm | - | 408 W/m² | - |
| 1777479297 | 11.67° C | 62% | 1017.4 hPa | 0 mm | - | 411 W/m² | - |
| 1777478696 | 11.67° C | 62% | 1017.4 hPa | 0 mm | - | 345 W/m² | - |
| 1777478094 | 11.67° C | 63% | 1017.5 hPa | 0 mm | - | 352 W/m² | - |
| 1777477494 | 11.11° C | 63% | 1017.5 hPa | 0 mm | - | 457 W/m² | - |
| 1777476894 | 11.11° C | 65% | 1017.7 hPa | 0 mm | - | 510 W/m² | - |
| 1777476311 | 10.56° C | 65% | 1018 hPa | 0 mm | - | 397 W/m² | - |
| 1777475691 | 10.56° C | 66% | 1018.1 hPa | 0 mm | - | 332 W/m² | - |
| 1777475142 | 10° C | 67% | 1018.4 hPa | 0 mm | - | 241 W/m² | - |
* Rain latest hour (hover to see other rain measurements)
** Current wind speed in m/s (hover to see current wind gust speed)